User: anonymous   Login
Location: Vancouver
(49.2500°N, 123.1330°W)
Time: 04:07:22
(UTC-08:00)
Language:

S-56A Canister/Altair - Orbit

View from above orbital plane
View from above orbital plane
View from above satellite
View from above satellite

Ground track
Ground track

The orbit data is extracted from the following two-line orbital elements,

1 00082U 61004B   16041.82941157  .00000102  00000-0  12566-3 0  9996
2 00082  38.8582 318.7735 1168173 338.4139  17.0934 12.25738565612847
Epoch (UTC): 10 February 2016 19:54:21
Eccentricity: 0.1168173
inclination: 38.8582°
perigee height: 639 km
apogee height: 2496 km
right ascension of ascending node: 318.7735°
argument of perigee: 338.4139°
revolutions per day: 12.25738565
mean anomaly at epoch: 17.0934°
orbit number at epoch: 61284

The dashed part of the orbit path shows where the satellite is in the earth's shadow,  

DLR